Trinidad, Colorado, United States (81082)
Lat: 37.17N, Lon: 104.5W
Wx Zone: COZ088
Local Info
Past Weather Observations for Sunday, August 24, 2014

NOTE: This archive is for the closest National Weather Service station to Trinidad. Information may differ from the station used for current weather conditions.

Click here for Long-term Archive

Time Weather Temperature Dewpoint Humidity Pressure Winds Precip Visibility
23:54
Clear
66°F / 19°C 43°F / 6°C 43% 30.09 in
(1019 mb)
SSW 15 mph
(SSW 24 kph)
- 10SM
22:54
Clear
68°F / 20°C 43°F / 6°C 40% 30.09 in
(1019 mb)
SSW 16.1 mph
(SSW 26 kph)
- 10SM
21:54
Partly Cloudy
68°F / 20°C 43°F / 6°C 40% 30.06 in
(1018 mb)
SSW 11.5 mph
(SSW 19 kph)
- 10SM
20:54
Partly Cloudy
70°F / 21°C 43°F / 6°C 38% 30.06 in
(1018 mb)
SSW 11.5 mph
(SSW 19 kph)
- 10SM
19:54
Partly Cloudy
75°F / 24°C 43°F / 6°C 31% 30.06 in
(1018 mb)
SSW 8.1 mph
(SSW 13 kph)
- 10SM
18:54
Mostly Cloudy
81°F / 27°C 41°F / 5°C 24% 30.04 in
(1017 mb)
S 10.4 mph
(S 17 kph)
- 10SM
17:54
Partly Cloudy
86°F / 30°C 37°F / 3°C 18% 30.04 in
(1017 mb)
Calm - 10SM
16:54
Partly Cloudy
88°F / 31°C 39°F / 4°C 18% 30.04 in
(1017 mb)
E 5.8 mph
(E 9 kph)
- 10SM
15:54
Mostly Cloudy
88°F / 31°C 37°F / 3°C 17% 30.04 in
(1017 mb)
E 5.8 mph
(E 9 kph)
- 10SM
14:54
Partly Cloudy
88°F / 31°C 37°F / 3°C 17% 30.04 in
(1017 mb)
Variable 4.6 mph
(Variable 7 kph)
- 10SM
13:54
Clear
88°F / 31°C 37°F / 3°C 17% 30.06 in
(1018 mb)
Variable 6.9 mph
(Variable 11 kph)
- 10SM
12:54
Clear
86°F / 30°C 41°F / 5°C 20% 30.06 in
(1018 mb)
SW 8.1 mph
(SW 13 kph)
- 10SM
11:54
Partly Cloudy
82°F / 28°C 41°F / 5°C 23% 30.09 in
(1019 mb)
Variable 5.8 mph
(Variable 9 kph)
- 10SM
10:54
Clear
81°F / 27°C 45°F / 7°C 28% 30.12 in
(1020 mb)
NE 6.9 mph
(NE 11 kph)
- 10SM
09:54
Clear
75°F / 24°C 45°F / 7°C 34% 30.12 in
(1020 mb)
E 6.9 mph
(E 11 kph)
- 10SM
08:54
Clear
72°F / 22°C 45°F / 7°C 38% 30.12 in
(1020 mb)
SSE 6.9 mph
(SSE 11 kph)
- 10SM
07:54
Clear
68°F / 20°C 45°F / 7°C 43% 30.12 in
(1020 mb)
SSW 8.1 mph
(SSW 13 kph)
- 10SM
06:54
Clear
61°F / 16°C 43°F / 6°C 52% 30.12 in
(1020 mb)
W 11.5 mph
(W 19 kph)
- 10SM
05:54
Clear
55°F / 13°C 43°F / 6°C 63% 30.12 in
(1020 mb)
SSW 11.5 mph
(SSW 19 kph)
- 10SM
04:54
Clear
52°F / 11°C 43°F / 6°C 72% 30.09 in
(1019 mb)
W 10.4 mph
(W 17 kph)
- 10SM
03:54
Clear
52°F / 11°C 45°F / 7°C 77% 30.09 in
(1019 mb)
SSW 9.2 mph
(SSW 15 kph)
- 10SM
02:54
Clear
52°F / 11°C 45°F / 7°C 77% 30.09 in
(1019 mb)
W 6.9 mph
(W 11 kph)
- 10SM
01:54
Clear
57°F / 14°C 45°F / 7°C 63% 30.09 in
(1019 mb)
Variable 3.5 mph
(Variable 6 kph)
- 10SM
00:54
Clear
63°F / 17°C 46°F / 8°C 56% 30.09 in
(1019 mb)
E 3.5 mph
(E 6 kph)
- 10SM
Time Weather Temperature Dewpoint Humidity Pressure Winds Precip Visibility


Weather for websites

WeatherForYou.com, LLC is not responsible for any damages or problems caused by this service. Current weather conditions are obtained from the closest station including government and personal stations which may have varying degrees of accuracy. Weather forecasts are derived from the NOAA NDFD. Like all things, this site belongs to Jesus Christ... He just trusts me to maintain it. If you have any questions or comments email webmaster@weatherforyou.com

Copyright © 2014, WeatherForYou.com LLC. All rights reserved.